This demonstration page uses our WeatherBlox Daily Observations layout. Learn more.

Left ArrowRight Arrow

47.50024, -111.30081

Hourly Observations for January 29, 2020

Temp ( °F °C ) Dew Point ( °F °C ) Humidity (%) Winds ( mph kmh ) Pressure ( in mb ) Visibility ( mi km ) Precip ( " mm )
12:53 am 00:53 Clear 28 -2.2 21 -6.1 75 75 SSW 10 17 30.11 1020 10 16 0.00 0.00
1:53 am 01:53 Clear 28 -2.2 21 -6.1 75 75 SSW 13 20 30.12 1020 10 16 0.00 0.00
2:53 am 02:53 Partly Cloudy 27 -2.8 21 -6.1 78 78 SW 10 17 30.15 1021 10 16 0.00 0.00
3:53 am 03:53 Cloudy 30 -1.1 23 -5 75 75 SW 5 7 30.16 1021 10 16 0.00 0.00
4:53 am 04:53 Cloudy 31 -0.6 23 -5 72 72 SSW 8 13 30.16 1022 10 16 0.00 0.00
5:53 am 05:53 Cloudy 31 -0.6 23 -5 72 72 SSW 9 15 30.18 1022 10 16 0.00 0.00
6:53 am 06:53 Clear 25 -3.9 20 -6.7 81 81 SSW 10 17 30.22 1023 10 16 0.00 0.00
7:53 am 07:53 Clear 23 -5 18 -7.8 81 81 SSW 9 15 30.23 1024 10 16 0.00 0.00
8:53 am 08:53 Sunny 31 -0.6 23 -5 72 72 SSW 9 15 30.21 1023 10 16 0.00 0.00
9:53 am 09:53 Sunny 37 2.8 26 -3.3 65 65 SSW 12 19 30.17 1022 10 16 0.00 0.00
10:53 am 10:53 Sunny 43 6.1 24 -4.4 47 47 SW 16 26 30.15 1021 10 16 0.00 0.00
11:53 am 11:53 Sunny 46 7.8 20 -6.7 35 35 SW 23 37 30.11 1020 10 16 0.00 0.00
12:53 pm 12:53 Sunny 47 8.3 19 -7.2 33 33 WSW 23 37 30.06 1018 10 16 0.00 0.00
1:53 pm 13:53 Sunny 46 7.8 20 -6.7 35 35 SW 21 33 30.02 1017 10 16 0.00 0.00
2:53 pm 14:53 Sunny 47 8.3 19 -7.2 33 33 SW 25 41 29.99 1016 10 16 0.00 0.00
3:53 pm 15:53 Sunny 44 6.7 20 -6.7 38 38 SW 20 31 29.97 1015 10 16 0.00 0.00
4:53 pm 16:53 Sunny 40 4.4 18 -7.8 41 41 SW 12 19 29.96 1015 10 16 0.00 0.00
5:53 pm 17:53 Clear 40 4.4 19 -7.2 43 43 SW 20 31 29.94 1014 10 16 0.00 0.00
6:53 pm 18:53 Clear 41 5 20 -6.7 43 43 SW 25 41 29.96 1015 10 16 0.00 0.00
7:53 pm 19:53 Cloudy 42 5.6 20 -6.7 41 41 SW 22 35 29.95 1014 10 16 0.00 0.00
8:53 pm 20:53 Cloudy 42 5.6 21 -6.1 43 43 SW 20 31 29.91 1013 10 16 0.00 0.00
9:53 pm 21:53 Cloudy 42 5.6 22 -5.6 45 45 SW 25 41 29.90 1013 10 16 0.00 0.00
10:53 pm 22:53 Cloudy 41 5 22 -5.6 47 47 SW 20 31 29.88 1012 10 16 0.00 0.00
11:53 pm 23:53 Mostly Clear 41 5 23 -5 49 49 SW 22 35 29.88 1012 10 16 0.00 0.00

Powered by AerisWeather